DW6599 Weather Reports


time (UTC)temp
F
wind
direction
speed
knots
gust
knots
rain 1hr
in
rain 24hr
in
rain mn
in
humidity
%
barometer
mb
20260506204858 63 30 8.7 20.0 0.00 0.00 0.00 61 1016.2
20260506204359 63 20 11.3 11.3 0.00 0.00 0.00 60 1016.1
20260506203859 63 20 11.3 11.3 0.00 0.00 0.00 60 1016.1
20260506203359 63 20 11.3 20.0 0.00 0.00 0.00 60 1015.8
20260506202858 63 50 11.3 20.0 0.00 0.00 0.00 59 1015.7
20260506202358 64 50 11.3 20.0 0.00 0.00 0.00 60 1015.6
20260506201859 64 50 11.3 20.0 0.00 0.00 0.00 60 1015.6
20260506201358 63 50 11.3 20.0 0.00 0.00 0.00 60 1015.4
20260506200359 64 50 11.3 20.0 0.00 0.00 0.00 60 1015.4
20260506195859 64 40 10.4 10.4 0.00 0.00 0.00 60 1015.4
20260506195359 63 40 10.4 10.4 0.00 0.00 0.00 61 1015.2
20260506194859 63 40 10.4 13.0 0.00 0.00 0.00 61 1015.2
20260506194359 63 20 13.0 13.0 0.00 0.00 0.00 61 1015.1
20260506193858 63 20 13.0 13.0 0.00 0.00 0.00 63 1015.1
20260506193359 62 20 13.0 13.0 0.00 0.00 0.00 61 1015.0
20260506192859 62 20 7.8 7.8 0.00 0.00 0.00 64 1015.0
20260506192358 62 20 7.8 7.8 0.00 0.00 0.00 60 1015.0
20260506191859 62 20 7.8 7.8 0.00 0.00 0.00 60 1015.1
20260506191359 62 20 7.8 7.8 0.00 0.00 0.00 63 1015.0
20260506190859 62 20 7.8 7.8 0.00 0.00 0.00 64 1015.0
20260506190358 61 20 7.8 18.2 0.00 0.00 0.00 65 1015.2
20260506185858 61 40 11.3 18.2 0.00 0.00 0.00 63 1015.1
20260506185359 61 40 11.3 18.2 0.00 0.00 0.00 64 1015.1
20260506184859 61 40 11.3 18.2 0.00 0.00 0.00 61 1015.2
20260506184359 61 30 11.3 11.3 0.00 0.00 0.00 62 1015.2
20260506183359 61 30 11.3 20.9 0.00 0.00 0.00 66 1015.2
20260506182859 60 30 12.2 20.9 0.00 0.00 0.00 65 1015.3
20260506182358 60 30 12.2 20.9 0.00 0.00 0.00 64 1015.3
20260506180359 58 30 12.2 20.9 0.00 0.00 0.00 66 1015.8
20260506175859 58 20 10.4 10.4 0.00 0.00 0.00 65 1015.9
20260506175359 58 20 10.4 10.4 0.00 0.00 0.00 66 1015.9
20260506174859 58 20 10.4 12.2 0.00 0.00 0.00 65 1015.9
20260506174359 57 30 12.2 12.2 0.00 0.00 0.00 66 1015.9
20260506173359 57 30 12.2 12.2 0.00 0.00 0.00 64 1016.0
20260506172859 57 40 8.7 8.7 0.00 0.00 0.00 65 1015.9
20260506172359 57 40 8.7 8.7 0.00 0.00 0.00 64 1016.1
20260506171859 57 40 8.7 8.7 0.00 0.00 0.00 66 1016.2
20260506171359 57 40 8.7 8.7 0.00 0.00 0.00 66 1016.5
20260506170859 57 40 8.7 8.7 0.00 0.00 0.00 66 1016.6
20260506170359 57 40 8.7 8.7 0.00 0.00 0.00 66 1016.9
20260506165859 57 70 8.7 8.7 0.00 0.00 0.00 67 1017.0
20260506165359 56 70 8.7 8.7 0.00 0.00 0.00 66 1017.2
20260506164859 56 70 8.7 8.7 0.00 0.00 0.00 66 1017.2
20260506164359 56 50 7.8 7.8 0.00 0.00 0.00 68 1017.3
20260506163859 56 50 7.8 7.8 0.00 0.00 0.00 67 1017.2
20260506163359 56 50 7.8 20.0 0.00 0.00 0.00 67 1017.4
20260506162859 55 20 11.3 20.0 0.00 0.00 0.00 68 1017.0
20260506162358 55 20 11.3 20.0 0.00 0.00 0.00 69 1016.6
20260506161858 54 20 11.3 20.0 0.00 0.00 0.00 68 1016.6
20260506161359 54 20 11.3 20.0 0.00 0.00 0.00 69 1016.6
20260506160359 54 20 11.3 20.0 0.00 0.00 0.00 69 1016.6
20260506155859 54 40 10.4 10.4 0.00 0.00 0.00 69 1016.4
20260506155358 54 40 10.4 10.4 0.00 0.00 0.00 70 1016.3
20260506154359 54 30 12.2 12.2 0.00 0.00 0.00 69 1016.1
20260506153859 54 30 12.2 12.2 0.00 0.00 0.00 69 1016.2
20260506153359 54 30 12.2 17.4 0.00 0.00 0.00 70 1016.2
20260506152859 54 30 11.3 17.4 0.00 0.00 0.00 69 1016.4
20260506152358 54 30 11.3 17.4 0.00 0.00 0.00 71 1016.4
20260506151859 54 30 11.3 17.4 0.00 0.00 0.00 71 1016.2
20260506151358 53 30 11.3 17.4 0.00 0.00 0.00 71 1016.2
20260506150858 53 30 11.3 17.4 0.00 0.00 0.00 71 1016.0
20260506150359 54 30 11.3 17.4 0.00 0.00 0.00 71 1016.5
20260506145858 54 30 13.0 13.0 0.00 0.00 0.00 70 1016.5
20260506145359 54 30 13.0 13.0 0.00 0.00 0.00 69 1016.6
20260506144858 54 30 13.0 13.0 0.00 0.00 0.00 69 1016.6
20260506144359 54 40 7.8 7.8 0.00 0.00 0.00 69 1016.4
20260506143859 54 40 7.8 7.8 0.00 0.00 0.00 69 1016.0
20260506143359 54 40 7.8 15.6 0.00 0.00 0.00 69 1015.9
20260506142859 54 30 10.4 15.6 0.00 0.00 0.00 69 1015.8
20260506142404 54 30 10.4 15.6 0.00 0.00 0.00 70 1015.6
20260506141859 54 30 10.4 15.6 0.00 0.00 0.00 69 1015.6
20260506141359 53 30 10.4 15.6 0.00 0.00 0.00 69 1015.6
20260506140859 54 30 10.4 15.6 0.00 0.00 0.00 69 1015.7
20260506140359 54 30 10.4 20.9 0.00 0.00 0.00 69 1015.7
20260506135858 53 20 12.2 20.9 0.00 0.00 0.00 69 1015.9
20260506135359 53 20 12.2 20.9 0.00 0.00 0.00 69 1015.8
20260506134859 53 20 12.2 20.9 0.00 0.00 0.00 69 1015.6
20260506134359 53 40 12.2 12.2 0.00 0.00 0.00 71 1015.5
20260506133859 53 40 12.2 12.2 0.00 0.00 0.00 69 1015.3
20260506133359 53 40 12.2 12.2 0.00 0.00 0.00 69 1015.2
20260506132358 53 20 10.4 10.4 0.00 0.00 0.00 71 1014.9
20260506131359 52 20 10.4 10.4 0.00 0.00 0.00 71 1014.6
20260506130859 52 20 10.4 10.4 0.00 0.00 0.00 71 1014.4
20260506130359 52 20 10.4 20.9 0.00 0.00 0.00 72 1014.5
20260506125359 52 30 11.3 20.9 0.00 0.00 0.00 72 1014.6
20260506124859 52 30 11.3 20.9 0.00 0.00 0.00 72 1014.7
20260506124359 52 20 11.3 20.0 0.00 0.00 0.00 72 1014.7
20260506123859 52 20 11.3 20.0 0.00 0.00 0.00 72 1014.5
20260506122859 52 20 11.3 20.0 0.00 0.00 0.00 73 1014.2
20260506122359 52 20 11.3 20.0 0.00 0.00 0.00 73 1014.1
20260506121859 52 20 11.3 20.0 0.00 0.00 0.00 73 1014.1
20260506121359 52 20 11.3 20.0 0.00 0.00 0.00 74 1014.0
20260506120359 51 20 11.3 20.0 0.00 0.00 0.00 74 1014.1
20260506115859 51 20 10.4 18.2 0.00 0.00 0.00 74 1014.2
20260506114900 51 20 10.4 18.2 0.00 0.00 0.00 74 1014.1
20260506113859 51 350 8.7 17.4 0.00 0.00 0.00 75 1013.8
20260506113400 51 350 8.7 20.0 0.00 0.00 0.00 74 1014.2
20260506112859 51 10 10.4 20.0 0.00 0.00 0.00 75 1014.3
20260506112359 51 10 10.4 20.0 0.00 0.00 0.00 75 1014.1
20260506111859 51 10 10.4 20.0 0.00 0.00 0.00 75 1013.9
20260506111359 51 10 10.4 20.0 0.00 0.00 0.00 75 1013.8
20260506110859 51 10 10.4 20.0 0.00 0.00 0.00 75 1013.2
20260506110359 51 10 10.4 20.0 0.00 0.00 0.00 75 1013.7
20260506105859 51 10 10.4 18.2 0.00 0.00 0.00 75 1013.3
20260506105400 51 10 10.4 18.2 0.00 0.00 0.00 76 1013.8
20260506104859 51 10 10.4 18.2 0.00 0.00 0.00 76 1013.6
20260506104359 51 10 7.0 7.0 0.00 0.00 0.00 76 1013.2
20260506103359 51 10 7.0 7.8 0.00 0.00 0.00 78 1013.4
20260506102859 51 0 7.8 7.8 0.00 0.00 0.00 78 1013.2
20260506102400 51 0 7.8 7.8 0.00 0.00 0.00 78 1013.2
20260506101859 51 0 7.8 7.8 0.00 0.00 0.00 79 1013.0
20260506100859 51 0 7.8 7.8 0.00 0.00 0.00 79 1013.0
20260506100359 51 0 7.8 8.7 0.00 0.00 0.00 79 1012.9
20260506095859 51 10 8.7 8.7 0.00 0.00 0.00 79 1012.9
20260506095359 51 10 8.7 8.7 0.00 0.00 0.00 79 1013.0
20260506094859 51 10 8.7 17.4 0.00 0.00 0.00 79 1013.0
20260506094359 51 10 10.4 17.4 0.00 0.00 0.00 79 1012.9
20260506093900 51 10 10.4 17.4 0.00 0.00 0.00 79 1012.8
20260506093359 51 10 10.4 17.4 0.00 0.00 0.00 79 1012.6
20260506092900 51 10 8.7 8.7 0.00 0.00 0.00 79 1012.6
20260506092359 51 10 8.7 8.7 0.00 0.00 0.00 79 1012.5
20260506091859 51 10 8.7 8.7 0.00 0.00 0.00 79 1012.4
20260506091359 51 10 8.7 8.7 0.00 0.00 0.00 79 1012.3
20260506090859 51 10 8.7 8.7 0.00 0.00 0.00 79 1012.3
20260506090359 51 10 8.7 8.7 0.00 0.00 0.00 79 1012.3
20260506085859 51 30 8.7 8.7 0.00 0.00 0.00 79 1012.1
20260506085400 51 30 8.7 8.7 0.00 0.00 0.00 79 1012.2
20260506084859 51 30 8.7 20.9 0.00 0.00 0.00 79 1012.1
20260506083859 51 30 12.2 20.9 0.00 0.00 0.00 79 1011.6
20260506083359 51 30 12.2 20.9 0.00 0.00 0.00 78 1011.8
20260506082359 51 20 10.4 17.4 0.00 0.00 0.00 78 1011.9
20260506081859 51 20 10.4 17.4 0.00 0.00 0.00 78 1011.8
20260506081359 51 20 10.4 17.4 0.00 0.00 0.00 78 1011.5
20260506080359 52 20 10.4 17.4 0.00 0.00 0.00 76 1011.6
20260506073400 52 20 7.0 7.8 0.00 0.00 0.00 75 1011.6
20260506072859 52 10 7.8 7.8 0.00 0.00 0.00 75 1011.7
20260506072400 52 10 7.8 7.8 0.00 0.00 0.00 75 1011.4
20260506071859 52 10 7.8 7.8 0.00 0.00 0.00 75 1011.7
20260506071359 52 10 7.8 7.8 0.00 0.00 0.00 75 1011.5
20260506070900 52 10 7.8 7.8 0.00 0.00 0.00 75 1011.1
20260506070359 52 10 7.8 8.7 0.00 0.00 0.00 75 1010.9
20260506062359 52 30 10.4 18.2 0.00 0.00 0.00 73 1010.9
20260506061859 53 30 10.4 18.2 0.00 0.00 0.00 73 1010.9
20260506061359 53 30 10.4 18.2 0.00 0.00 0.00 73 1011.1
20260506060900 53 30 10.4 18.2 0.00 0.00 0.00 72 1011.2
20260506060400 53 30 10.4 18.2 0.00 0.00 0.00 73 1011.1
20260506051359 54 10 7.8 7.8 0.00 0.00 0.00 73 1011.2
20260506050859 54 10 7.8 7.8 0.00 0.00 0.00 72 1011.2
20260506050400 54 10 7.8 20.0 0.00 0.00 0.00 73 1011.2
20260506044900 54 10 8.7 20.0 0.00 0.00 0.00 73 1011.2
20260506044359 54 10 8.7 8.7 0.00 0.00 0.00 73 1011.2
20260506043859 54 10 8.7 8.7 0.00 0.00 0.00 73 1011.1
20260506043400 54 10 8.7 8.7 0.00 0.00 0.00 73 1011.0
20260506042900 54 10 8.7 8.7 0.00 0.00 0.00 73 1011.0
20260506042359 54 10 8.7 8.7 0.00 0.00 0.00 73 1011.0
20260506041900 54 10 8.7 8.7 0.00 0.00 0.00 73 1011.2
20260506040859 54 10 8.7 8.7 0.00 0.00 0.00 74 1011.2
20260506040359 54 10 8.7 8.7 0.00 0.00 0.00 74 1011.1
20260506035900 54 20 8.7 8.7 0.00 0.00 0.00 74 1011.2
20260506035359 54 20 8.7 8.7 0.00 0.00 0.00 74 1011.2
20260506034900 54 20 8.7 20.9 0.00 0.00 0.00 74 1011.2
20260506034400 54 20 12.2 20.9 0.00 0.00 0.00 74 1011.1
20260506033859 54 20 12.2 20.9 0.00 0.00 0.00 75 1011.0
20260506033359 54 20 12.2 20.9 0.00 0.00 0.00 75 1010.9
20260506032900 54 10 12.2 18.2 0.00 0.00 0.00 75 1010.9
20260506032400 54 10 12.2 18.2 0.00 0.00 0.00 75 1010.6
20260506031900 55 10 12.2 18.2 0.00 0.00 0.00 75 1010.3
20260506031359 55 10 12.2 18.2 0.00 0.00 0.00 75 1010.1
20260506030900 55 10 12.2 18.2 0.00 0.00 0.00 75 1010.1
20260506030400 55 10 12.2 18.2 0.00 0.00 0.00 74 1009.8
20260506025900 55 0 11.3 11.3 0.00 0.00 0.00 74 1009.6
20260506025400 55 0 11.3 11.3 0.00 0.00 0.00 74 1009.5
20260506024900 55 0 11.3 11.3 0.00 0.00 0.00 74 1009.3
20260506024400 55 10 8.7 8.7 0.00 0.00 0.00 74 1009.3
20260506023900 56 10 8.7 8.7 0.00 0.00 0.00 75 1009.3
20260506022359 57 0 10.4 18.2 0.00 0.00 0.00 79 1009.1
20260506021859 57 0 10.4 18.2 0.00 0.00 0.00 79 1008.8
20260506021400 57 0 10.4 18.2 0.00 0.00 0.00 79 1008.7
20260506020900 57 0 10.4 18.2 0.00 0.00 0.00 79 1008.6
20260506015900 57 0 8.7 15.6 0.00 0.00 0.00 79 1008.3
20260506014859 57 0 8.7 15.6 0.00 0.00 0.00 79 1008.0
20260506014400 57 10 8.7 8.7 0.00 0.00 0.00 79 1008.0
20260506013900 57 10 8.7 8.7 0.00 0.00 0.00 79 1008.0
20260506013400 57 10 8.7 15.6 0.00 0.00 0.00 79 1008.1
20260506012900 57 10 8.7 15.6 0.00 0.00 0.00 79 1007.8
20260506012400 58 10 8.7 15.6 0.00 0.00 0.00 78 1007.7
20260506011900 58 10 8.7 15.6 0.00 0.00 0.00 78 1007.7
20260506011400 58 10 8.7 15.6 0.00 0.00 0.00 78 1007.7
20260506010900 58 10 8.7 15.6 0.00 0.00 0.00 78 1007.9
20260506010359 58 10 8.7 18.2 0.00 0.00 0.00 78 1007.6
20260506005859 58 0 7.8 18.2 0.00 0.00 0.00 78 1007.4
20260506005400 58 0 7.8 18.2 0.00 0.00 0.00 78 1007.5
20260506004900 59 0 7.8 18.2 0.00 0.00 0.00 76 1007.5
20260506004400 59 0 11.3 11.3 0.00 0.00 0.00 76 1007.5
20260506003400 60 0 11.3 17.4 0.00 0.00 0.00 76 1007.3
20260506002859 60 10 7.8 17.4 0.00 0.00 0.00 76 1007.0
20260506002400 60 10 7.8 17.4 0.00 0.00 0.00 75 1007.1
20260506001359 61 10 7.8 17.4 0.00 0.00 0.00 75 1006.9
20260506000900 61 10 7.8 17.4 0.00 0.00 0.00 75 1006.9
20260506000401 65 10 7.8 20.0 0.00 0.00 0.00 69 1006.9
20260505235400 65 350 11.3 20.0 0.00 0.00 0.00 69 1006.8
20260505234859 65 350 11.3 20.0 0.00 0.00 0.00 69 1006.7
20260505234400 65 330 8.7 17.4 0.00 0.00 0.00 69 1006.8
20260505233400 65 330 8.7 18.2 0.00 0.00 0.00 69 1006.8
20260505232900 65 330 11.3 18.2 0.00 0.00 0.00 69 1006.7
20260505232359 65 330 11.3 18.2 0.00 0.00 0.00 69 1006.7
20260505231400 66 330 11.3 18.2 0.00 0.00 0.00 68 1006.7
20260505230900 67 330 11.3 18.2 0.00 0.00 0.00 68 1006.5
20260505230400 67 330 11.3 18.2 0.00 0.00 0.00 68 1006.5
20260505225400 68 320 8.7 17.4 0.00 0.00 0.00 67 1006.3
20260505224901 68 320 8.7 17.4 0.00 0.00 0.00 67 1006.2
20260505224400 69 320 7.0 17.4 0.00 0.00 0.00 67 1006.0
20260505223900 69 320 7.0 17.4 0.00 0.00 0.00 68 1006.0
20260505223400 69 320 7.0 17.4 0.00 0.00 0.00 68 1005.9
20260505222900 69 340 8.7 15.6 0.00 0.00 0.00 68 1005.7
20260505222400 69 340 8.7 15.6 0.00 0.00 0.00 68 1005.5
20260505221900 69 340 8.7 15.6 0.00 0.00 0.00 68 1005.3
20260505221400 69 340 8.7 15.6 0.00 0.00 0.00 68 1005.4
20260505220900 70 340 8.7 15.6 0.00 0.00 0.00 67 1005.5
20260505220400 70 340 8.7 15.6 0.00 0.00 0.00 67 1005.4
20260505215400 71 310 7.0 7.0 0.00 0.00 0.00 66 1005.1
20260505214900 71 310 7.0 7.0 0.00 0.00 0.00 66 1005.0
20260505214400 72 320 7.0 7.0 0.00 0.00 0.00 65 1005.0
20260505213400 73 320 7.0 8.7 0.00 0.00 0.00 65 1004.9
20260505212900 73 320 8.7 8.7 0.00 0.00 0.00 65 1004.8
20260505211400 74 320 8.7 8.7 0.00 0.00 0.00 64 1004.6
20260505210900 74 320 8.7 8.7 0.00 0.00 0.00 64 1004.5
20260505210400 74 320 8.7 17.4 0.00 0.00 0.00 65 1004.6
20260505205900 75 300 7.8 17.4 0.00 0.00 0.00 64 1004.6